Home > Weather > Tübingen > Past weeks

Flag for Germany Past Weather in Tübingen, Baden-Württemberg, Germany — Yesterday and Last 2 Weeks

Now
64 °F

Broken clouds.


Feels Like: 64 °F
Forecast: 50 / 70 °F
Wind: 1 mph from North

Location: Stuttgart-Echterdingen

Current Time: Jun 25, 2016 at 9:06:00 AM

Latest Report: Jun 25, 2016 at 8:20 AM


Visibility: N/A

Pressure: 29.95 "Hg

Humidity: 94%

Dew Point: 63 °F

Location of TübingenLocation

Past Weather in Tübingen — Graph

°F

Tübingen Temperature Yesterday

Maximum temperature yesterday: 91 °F (at 3:50 PM)
Minimum temperature yesterday: 64 °F (at 5:20 AM)
Average temperature yesterday: 78 °F

High & Low Weather Summary for the Past Weeks

 TemperatureHumidityPressure
High91 °F (Jun 23, 4:50 PM)100% (Jun 11, 7:50 PM)30.27 "Hg (Jun 11, 7:50 PM)
Low48 °F (Jun 20, 4:20 AM)30% (Jun 23, 5:20 PM)29.56 "Hg (Jun 14, 12:50 PM)
Average63 °F78%29.93 "Hg
* Reported Jun 10 7:20 AM — Jun 25 7:50 AM, Tübingen, Weather by CustomWeather, © 2016

Note: Actual official high and low records may vary slightly from our data, if they occured in-between our weather recording intervals... More about our weather records

Advertising

Tübingen Weather History for the Previous 24 Hours

Scroll right to see more
 ConditionsComfort  
Time TempWeatherWind HumidityBarometerVisibility
7:50 AM
Sat, Jun 25
64 °FScattered showers. Broken clouds.No wind94%29.95 "HgN/A
7:20 AM64 °FLight rain. Partly sunny.6 mph94%29.95 "HgN/A
6:50 AM64 °FLight rain. Partly sunny.1 mph88%29.95 "HgN/A
6:20 AM64 °FPassing clouds.6 mph94%29.95 "HgN/A
5:50 AM63 °FLight rain. Passing clouds.6 mph100%29.95 "HgN/A
5:20 AM64 °FLight rain. Passing clouds.3 mph88%29.95 "HgN/A
4:50 AM64 °FLight rain. Passing clouds.7 mph88%29.95 "HgN/A
4:20 AM63 °FLight rain. Passing clouds.8 mph94%29.98 "HgN/A
3:50 AM64 °FLight rain. Passing clouds.7 mph88%29.98 "HgN/A
3:20 AM64 °FLight rain. Passing clouds.10 mph88%29.98 "HgN/A
2:50 AM64 °FLight rain. Passing clouds.9 mph94%29.98 "HgN/A
2:20 AM64 °FLight rain. Passing clouds.2 mph88%30.01 "HgN/A
1:50 AM64 °FSprinkles. Partly cloudy.6 mph88%30.04 "HgN/A
1:20 AM63 °FRain showers. Partly cloudy.17 mph94%30.04 "HgN/A
12:50 AM64 °FThunderstorms. Partly cloudy.23 mph88%30.07 "Hg6 mi
12:20 AM66 °FThunderstorms. Partly cloudy.16 mph83%30.07 "Hg6 mi
11:50 PM
Fri, Jun 24
68 °FThunderstorms. Passing clouds.17 mph88%30.07 "HgN/A
11:20 PM73 °FThunderstorms. Partly cloudy.2 mph83%30.01 "HgN/A
10:50 PM77 °FThunderstorms. Partly cloudy.3 mph69%30.01 "HgN/A
10:20 PM79 °FThunderstorms. Broken clouds.15 mph70%29.98 "HgN/A
9:50 PM79 °FThundershowers. Scattered clouds.13 mph65%29.98 "HgN/A
9:20 PM79 °FScattered clouds.10 mph70%29.98 "HgN/A
8:50 PM81 °FScattered clouds.10 mph66%29.98 "HgN/A
8:20 PM82 °FScattered clouds.8 mph58%29.98 "HgN/A
7:50 PM82 °FScattered clouds.8 mph55%29.98 "HgN/A
7:20 PM84 °FPassing clouds.13 mph51%29.98 "HgN/A
6:50 PM86 °FPassing clouds.12 mph46%29.98 "HgN/A
6:20 PM86 °FPassing clouds.12 mph49%29.98 "HgN/A
5:50 PM88 °FSunny.13 mph46%29.98 "Hg10 mi
5:20 PM88 °FSunny.15 mph49%29.98 "Hg10 mi
4:50 PM88 °FSunny.13 mph52%30.01 "Hg10 mi
4:20 PM90 °FSunny.8 mph46%30.01 "Hg10 mi
3:50 PM91 °FPassing clouds.7 mph34%30.01 "HgN/A
3:20 PM90 °FPassing clouds.7 mph33%30.01 "HgN/A
2:50 PM90 °FPassing clouds.8 mph36%30.01 "HgN/A
2:20 PM90 °FPassing clouds.7 mph33%30.04 "HgN/A
1:50 PM88 °FPassing clouds.6 mph33%30.04 "HgN/A
1:20 PM88 °FSunny.7 mph43%30.04 "Hg10 mi
12:50 PM88 °FPassing clouds.7 mph40%30.07 "HgN/A
12:20 PM88 °FSunny.5 mph40%30.07 "Hg10 mi
11:50 AM86 °FSunny.5 mph46%30.07 "Hg10 mi
11:20 AM86 °FPassing clouds.6 mph40%30.07 "HgN/A
10:50 AM86 °FPassing clouds.1 mph52%30.07 "HgN/A
10:20 AM84 °FSunny.2 mph58%30.07 "Hg10 mi
9:50 AM82 °FSunny.3 mph62%30.07 "Hg10 mi
9:20 AM79 °FSunny.1 mph70%30.09 "Hg10 mi
Weather by CustomWeather, © 2016

See weather overviewHow to use our weather pages